EN

Hourly Weather Dziwy

Today, 20 October, Tuesday

Time Temperature Precipitation Wind Pressure Humidity
00:00 +3°C° 0 mm 3 mps 754 mmHg 91%
01:00 +3°C° 0 mm 3 mps 754 mmHg 92%
02:00 +3°C° 0 mm 3 mps 754 mmHg 92%
03:00 +3°C° 0 mm 3 mps 754 mmHg 92%
04:00 +3°C° 0 mm 3 mps 754 mmHg 93%
05:00 +4°C° 0 mm 2 mps 754 mmHg 92%
06:00 +4°C° 0 mm 2 mps 755 mmHg 91%
07:00 +4°C° 0 mm 2 mps 755 mmHg 91%
08:00 +5°C° 0 mm 2 mps 755 mmHg 85%
09:00 +7°C° 0 mm 3 mps 755 mmHg 80%
10:00 +8°C° 0 mm 3 mps 754 mmHg 75%
11:00 +8°C° 0 mm 4 mps 754 mmHg 71%
12:00 +10°C° 0 mm 4 mps 754 mmHg 68%
13:00 +9°C° 0 mm 5 mps 754 mmHg 65%
14:00 +9°C° 0 mm 5 mps 753 mmHg 66%
15:00 +9°C° 0 mm 5 mps 752 mmHg 68%
16:00 +9°C° 0 mm 5 mps 752 mmHg 69%
17:00 +9°C° 0 mm 6 mps 751 mmHg 70%
18:00 +8°C° 0 mm 6 mps 750 mmHg 71%
19:00 +8°C° 0 mm 7 mps 750 mmHg 72%
20:00 +8°C° 0 mm 6 mps 750 mmHg 73%
21:00 +8°C° 0 mm 6 mps 749 mmHg 73%
22:00 +8°C° 0 mm 6 mps 749 mmHg 74%
23:00 +8°C° 0 mm 5 mps 749 mmHg 73%

Tomorrow, 21 October, Wednesday

Time Temperature Precipitation Wind Pressure Humidity
00:00 +8°C° 0 mm 5 mps 748 mmHg 73%
01:00 +8°C° 0 mm 5 mps 748 mmHg 73%
02:00 +8°C° 0 mm 5 mps 748 mmHg 73%
03:00 +8°C° 0 mm 5 mps 747 mmHg 73%
04:00 +8°C° 0 mm 5 mps 747 mmHg 74%
05:00 +8°C° 0.1 mm 5 mps 747 mmHg 76%
06:00 +8°C° 0.1 mm 5 mps 747 mmHg 79%
07:00 +8°C° 0.1 mm 5 mps 747 mmHg 82%
08:00 +8°C° 0.2 mm 5 mps 747 mmHg 83%
09:00 +8°C° 0.2 mm 4 mps 748 mmHg 84%
10:00 +10°C° 0.2 mm 4 mps 748 mmHg 85%
11:00 +10°C° 0.1 mm 4 mps 748 mmHg 84%
12:00 +10°C° 0.1 mm 4 mps 748 mmHg 82%
13:00 +10°C° 0.1 mm 3 mps 748 mmHg 81%
14:00 +10°C° 0 mm 3 mps 747 mmHg 80%
15:00 +10°C° 0 mm 3 mps 747 mmHg 79%
16:00 +11°C° 0 mm 3 mps 747 mmHg 77%
17:00 +10°C° 0 mm 3 mps 747 mmHg 78%
18:00 +10°C° 0 mm 3 mps 747 mmHg 79%
19:00 +10°C° 0 mm 4 mps 747 mmHg 80%
20:00 +10°C° 0 mm 4 mps 747 mmHg 80%
21:00 +10°C° 0 mm 4 mps 746 mmHg 81%
22:00 +9°C° 0 mm 5 mps 746 mmHg 81%
23:00 +9°C° 0 mm 5 mps 746 mmHg 80%

Day after tomorrow, 22 October, Thursday

Time Temperature Precipitation Wind Pressure Humidity
00:00 +9°C° 0 mm 5 mps 747 mmHg 79%
01:00 +9°C° 0 mm 5 mps 747 mmHg 78%
02:00 +9°C° 0 mm 5 mps 747 mmHg 78%
03:00 +9°C° 0 mm 5 mps 747 mmHg 78%
04:00 +9°C° 0 mm 5 mps 747 mmHg 77%
05:00 +9°C° 0 mm 5 mps 747 mmHg 79%
06:00 +9°C° 0 mm 5 mps 747 mmHg 81%
07:00 +9°C° 0 mm 5 mps 747 mmHg 82%
08:00 +12°C° 0 mm 5 mps 748 mmHg 78%
09:00 +13°C° 0 mm 5 mps 748 mmHg 74%
10:00 +15°C° 0 mm 5 mps 748 mmHg 69%
11:00 +16°C° 0 mm 5 mps 748 mmHg 67%
12:00 +16°C° 0 mm 5 mps 748 mmHg 66%
13:00 +17°C° 0 mm 6 mps 748 mmHg 64%
14:00 +16°C° 0 mm 5 mps 748 mmHg 67%
15:00 +17°C° 0 mm 4 mps 748 mmHg 71%
16:00 +15°C° 0 mm 4 mps 748 mmHg 75%
17:00 +14°C° 0 mm 4 mps 748 mmHg 77%
18:00 +14°C° 0 mm 4 mps 748 mmHg 79%
19:00 +13°C° 0 mm 4 mps 748 mmHg 81%
20:00 +13°C° 0 mm 4 mps 747 mmHg 81%
21:00 +13°C° 0 mm 4 mps 747 mmHg 82%
22:00 +13°C° 0 mm 4 mps 747 mmHg 82%
23:00 +13°C° 0 mm 4 mps 747 mmHg 81%

23 October, Friday

Time Temperature Precipitation Wind Pressure Humidity
00:00 +13°C° 0 mm 4 mps 747 mmHg 81%
01:00 +13°C° 0 mm 4 mps 747 mmHg 80%
02:00 +13°C° 0 mm 5 mps 746 mmHg 78%
03:00 +13°C° 0 mm 5 mps 746 mmHg 76%
04:00 +13°C° 0 mm 5 mps 746 mmHg 74%
05:00 +13°C° 0 mm 5 mps 746 mmHg 76%
06:00 +13°C° 0 mm 5 mps 745 mmHg 77%
07:00 +13°C° 0 mm 5 mps 745 mmHg 79%
08:00 +13°C° 0.1 mm 5 mps 745 mmHg 80%
09:00 +13°C° 0.1 mm 6 mps 746 mmHg 80%
10:00 +14°C° 0.1 mm 6 mps 746 mmHg 81%
11:00 +14°C° 0 mm 6 mps 746 mmHg 76%
12:00 +15°C° 0 mm 6 mps 746 mmHg 72%
13:00 +16°C° 0 mm 6 mps 746 mmHg 67%
14:00 +15°C° 0 mm 5 mps 746 mmHg 67%
15:00 +15°C° 0 mm 5 mps 746 mmHg 68%
16:00 +14°C° 0 mm 4 mps 746 mmHg 68%
17:00 +13°C° 0 mm 3 mps 746 mmHg 72%
18:00 +12°C° 0 mm 3 mps 746 mmHg 76%
19:00 +12°C° 0 mm 2 mps 747 mmHg 79%
20:00 +12°C° 0 mm 2 mps 747 mmHg 81%
21:00 +10°C° 0 mm 2 mps 747 mmHg 82%
22:00 +11°C° 0 mm 1 mps 747 mmHg 83%
23:00 +11°C° 0 mm 1 mps 747 mmHg 83%

24 October, Saturday

Time Temperature Precipitation Wind Pressure Humidity
00:00 +11°C° 0 mm 1 mps 747 mmHg 83%
01:00 +11°C° 0 mm 1 mps 746 mmHg 83%
02:00 +11°C° 0.1 mm 1 mps 746 mmHg 84%
03:00 +11°C° 0.1 mm 1 mps 746 mmHg 86%
04:00 +10°C° 0.1 mm 2 mps 746 mmHg 87%
05:00 +10°C° 0.1 mm 2 mps 746 mmHg 90%
06:00 +10°C° 0.1 mm 2 mps 745 mmHg 92%
07:00 +10°C° 0.1 mm 2 mps 745 mmHg 94%
08:00 +10°C° 0.4 mm 3 mps 746 mmHg 91%
09:00 +11°C° 0.4 mm 4 mps 746 mmHg 89%
10:00 +10°C° 0.4 mm 5 mps 746 mmHg 86%
11:00 +10°C° 0.2 mm 6 mps 746 mmHg 82%
12:00 +10°C° 0.2 mm 6 mps 746 mmHg 79%
13:00 +10°C° 0.2 mm 6 mps 746 mmHg 75%
14:00 +10°C° 0.2 mm 6 mps 746 mmHg 76%
15:00 +10°C° 0.2 mm 6 mps 746 mmHg 76%
16:00 +10°C° 0.2 mm 5 mps 747 mmHg 77%
17:00 +9°C° 0.1 mm 5 mps 747 mmHg 77%
18:00 +8°C° 0.1 mm 5 mps 748 mmHg 78%
19:00 +7°C° 0.1 mm 5 mps 748 mmHg 78%
20:00 +7°C° 0 mm 5 mps 749 mmHg 80%
21:00 +6°C° 0 mm 5 mps 749 mmHg 82%
22:00 +6°C° 0 mm 5 mps 750 mmHg 85%
23:00 +6°C° 0 mm 4 mps 750 mmHg 86%

25 October, Sunday

Time Temperature Precipitation Wind Pressure Humidity
00:00 +5°C° 0 mm 4 mps 750 mmHg 87%
01:00 +5°C° 0 mm 4 mps 750 mmHg 89%
02:00 +5°C° 0 mm 3 mps 750 mmHg 90%
03:00 +4°C° 0 mm 3 mps 751 mmHg 92%
04:00 +4°C° 0 mm 3 mps 751 mmHg 93%
05:00 +4°C° 0 mm 3 mps 751 mmHg 94%
06:00 +4°C° 0 mm 3 mps 751 mmHg 94%
07:00 +5°C° 0 mm 2 mps 751 mmHg 94%
08:00 +6°C° 0 mm 2 mps 752 mmHg 88%
09:00 +7°C° 0 mm 2 mps 752 mmHg 82%
10:00 +9°C° 0 mm 2 mps 752 mmHg 75%
11:00 +10°C° 0 mm 2 mps 752 mmHg 71%
12:00 +10°C° 0 mm 2 mps 752 mmHg 66%
13:00 +12°C° 0 mm 2 mps 752 mmHg 62%
14:00 +10°C° 0 mm 2 mps 752 mmHg 64%
15:00 +11°C° 0 mm 1 mps 751 mmHg 67%
16:00 +10°C° 0 mm 1 mps 751 mmHg 70%
17:00 +9°C° 0 mm 2 mps 751 mmHg 73%
18:00 +8°C° 0 mm 2 mps 751 mmHg 76%
19:00 +7°C° 0 mm 2 mps 751 mmHg 80%
20:00 +7°C° 0 mm 3 mps 751 mmHg 81%
21:00 +5°C° 0 mm 3 mps 751 mmHg 82%
22:00 +5°C° 0 mm 3 mps 751 mmHg 84%
23:00 +5°C° 0 mm 3 mps 751 mmHg 85%

26 October, Monday

Time Temperature Precipitation Wind Pressure Humidity
00:00 +5°C° 0 mm 3 mps 751 mmHg 86%
01:00 +4°C° 0 mm 3 mps 751 mmHg 87%
02:00 +4°C° 0 mm 3 mps 751 mmHg 88%
03:00 +4°C° 0 mm 3 mps 750 mmHg 88%
04:00 +4°C° 0 mm 4 mps 750 mmHg 89%
05:00 +4°C° 0 mm 4 mps 750 mmHg 89%
06:00 +4°C° 0 mm 4 mps 750 mmHg 88%
07:00 +4°C° 0 mm 4 mps 750 mmHg 88%
08:00 +5°C° 0 mm 5 mps 750 mmHg 81%
09:00 +7°C° 0 mm 5 mps 750 mmHg 75%
10:00 +8°C° 0 mm 6 mps 750 mmHg 68%
11:00 +9°C° 0 mm 6 mps 749 mmHg 65%
12:00 +10°C° 0 mm 6 mps 749 mmHg 62%
13:00 +10°C° 0 mm 6 mps 749 mmHg 60%
14:00 +10°C° 0 mm 5 mps 748 mmHg 64%
15:00 +9°C° 0 mm 5 mps 748 mmHg 68%
16:00 +8°C° 0 mm 4 mps 748 mmHg 71%
17:00 +8°C° 0 mm 4 mps 748 mmHg 74%
18:00 +8°C° 0 mm 5 mps 748 mmHg 77%
19:00 +7°C° 0 mm 5 mps 748 mmHg 79%
20:00 +7°C° 0 mm 5 mps 748 mmHg 81%
21:00 +7°C° 0 mm 4 mps 748 mmHg 83%
22:00 +7°C° 0 mm 4 mps 748 mmHg 85%
23:00 +7°C° 0.2 mm 4 mps 748 mmHg 87%
Show more